This is the latest recevied weather packets stored in our database for station/object KB8TTR. If no packets are shown the sender has not sent any weather packets the latest 10 day(s).
| Time | Temp. | Humidity | Pressure | Rain* | Wind** | Luminosity | Snow |
|---|---|---|---|---|---|---|---|
| 1788457935 | 35° C | 58% | 1015.2 hPa | 0 mm | - | 762 W/m² | - |
| 1788457634 | 35° C | 57% | 1015.4 hPa | 0 mm | - | 792 W/m² | - |
| 1788457330 | 35° C | 58% | 1015.4 hPa | 0 mm | - | 847 W/m² | - |
| 1788457030 | 34.44° C | 59% | 1015.6 hPa | 0 mm | - | 769 W/m² | - |
| 1788456726 | 33.89° C | 61% | 1015.7 hPa | 0 mm | - | 874 W/m² | - |
| 1788456420 | 33.33° C | 61% | 1015.7 hPa | 0 mm | - | 877 W/m² | - |
| 1788456115 | 33.89° C | 61% | 1015.5 hPa | 0 mm | - | 394 W/m² | - |
| 1788455810 | 33.89° C | 62% | 1015.4 hPa | 0 mm | - | 526 W/m² | - |
| 1788455506 | 33.89° C | 63% | 1015.6 hPa | 0 mm | - | 544 W/m² | - |
| 1788455205 | 33.33° C | 64% | 1015.9 hPa | 0 mm | - | 890 W/m² | - |
| 1788454901 | 33.33° C | 65% | 1015.8 hPa | 0 mm | - | 405 W/m² | - |
| 1788454599 | 33.33° C | 65% | 1015.9 hPa | 0 mm | - | 547 W/m² | - |
| 1788454299 | 33.33° C | 63% | 1015.9 hPa | 0 mm | - | 523 W/m² | - |
| 1788453993 | 33.33° C | 64% | 1015.8 hPa | 0 mm | - | 833 W/m² | - |
| 1788453690 | 33.89° C | 61% | 1015.9 hPa | 0 mm | - | 421 W/m² | - |
| 1788453409 | 33.89° C | 61% | 1016.2 hPa | 0 mm | - | 453 W/m² | - |
| 1788453080 | 33.89° C | 62% | 1016.1 hPa | 0 mm | - | 840 W/m² | - |
| 1788452777 | 33.89° C | 63% | 1016.1 hPa | 0 mm | - | 623 W/m² | - |
| 1788452472 | 33.89° C | 62% | 1016.2 hPa | 0 mm | - | 791 W/m² | - |
| 1788452167 | 33.33° C | 62% | 1016.3 hPa | 0 mm | - | 690 W/m² | - |
| 1788451863 | 33.33° C | 63% | 1016.4 hPa | 0 mm | - | 727 W/m² | - |
| 1788451563 | 32.78° C | 64% | 1016.2 hPa | 0 mm | - | 669 W/m² | - |
| 1788451257 | 32.78° C | 64% | 1016.4 hPa | 0 mm | - | 691 W/m² | - |
| 1788450956 | 32.78° C | 66% | 1016.3 hPa | 0 mm | - | 671 W/m² | - |
| 1788450651 | 32.22° C | 66% | 1016.3 hPa | 0 mm | - | 650 W/m² | - |
* Rain latest hour (hover to see other rain measurements)
** Current wind speed in m/s (hover to see current wind gust speed)